Regional Weather Roundup
Issued by NWS

Home | Current Version | Previous Version | Graphics & Text | Print | Product List | Glossary On
Versions: 1 2 3 4 5 6 7 8 9 10 11 12 13 14 15 16 17 18 19 20 21 22 23 24 25 26 27 28 29 30 31 32 33 34 35 36 37 38 39 40 41 42 43 44 45 46 47 48 49 50
000
ASUS45 KCYS 192010
RWRWY

WYOMING REGIONAL WEATHER ROUNDUP
NATIONAL WEATHER SERVICE CHEYENNE WY
200 PM MDT SUN OCT 19 2014

NOTE:  "FAIR" INDICATES FEW OR NO CLOUDS BELOW 12,000 FEET
WITH NO SIGNIFICANT WEATHER AND/OR OBSTRUCTIONS TO VISIBILITY.

WYZ001-192100-
YELLOWSTONE NATIONAL PARK

CITY           SKY/WX    TMP DP  RH WIND       PRES   REMARKS
LK YELLOWSTONE   N/A     52  35  52 VRB5      30.24F
W YELLOWSTONE  NOT AVBL

$$
WYZ002>013-054>058-071-098>099-192100-
NORTHERN WYOMING

CITY           SKY/WX    TMP DP  RH WIND       PRES   REMARKS
JACKSON        SUNNY     59  32  36 SE5       30.18F
CODY           SUNNY    N/A N/A N/A SE7       30.06F
GREYBULL       SUNNY     70  32  24 VRB3      30.04F
WORLAND        SUNNY     71  34  25 N5        30.05F
SHERIDAN       SUNNY     74  32  21 MISG      30.04F
BUFFALO        SUNNY     70  33  25 S9        30.09F
GILLETTE       SUNNY     70  34  26 SW7       30.07F
HULETT         FAIR      68  37  32 W3        30.08
NEWCASTLE      FAIR      70  32  24 W9        30.08

$$
WYZ014>020-022>026-101>103-192100-
CENTRAL WYOMING

CITY           SKY/WX    TMP DP  RH WIND       PRES   REMARKS
BIG PINEY      SUNNY     63  24  22 S6        30.21F
PINEDALE       CLEAR     61  23  23 S5        30.21F
DUBOIS         FAIR      61  21  21 SE3       30.18F
LANDER         SUNNY     65  32  29 VRB3      30.10F
RIVERTON       SUNNY     63  33  32 NE5       30.12F
CASPER         SUNNY     68  31  25 VRB3      30.11F
DOUGLAS        SUNNY     71  30  21 VRB7      30.11F

$$
WYZ021-027>030-104>119-192100-
SOUTHERN WYOMING

CITY           SKY/WX    TMP DP  RH WIND       PRES   REMARKS
EVANSTON       MOSUNNY   63  30  28 N7        30.19F
KEMMERER       CLEAR     63  28  27 CALM      30.22F
FORT BRIDGER   FAIR      62  32  32 CALM      30.23F
ROCK SPRINGS   SUNNY     63  29  27 VRB3      30.18F
DIXON          FAIR      68  32  26 W9        30.19F
RAWLINS        SUNNY     66  25  21 VRB5      30.18F
SARATOGA       FAIR      64  27  24 CALM      30.20F
LARAMIE        SUNNY     63  28  26 NW7       30.19F
CHEYENNE       SUNNY     68  31  25 N13       30.14F
TORRINGTON     SUNNY     71  36  27 SW5       30.06F
PINE BLUFFS    FAIR      70  34  26 E6        30.11F

$$



USA.gov is the U.S. government's official web portal to all federal, state and local government web resources and services.